#timestamp,LO_Frequency,Hit,StdDev 
1588676415.7,286047001.9,N
1588676435.5,286047002.4,N
1588676455.3,286046999.7,N
1588676475.2,286046998.2,N
1588676495.0,286046996.6,N
1588676495.9,286046996.6,N
1588676515.7,286046998.5,N
1588676535.6,286046999.3,N
1588676555.4,286046999.5,N
1588676575.3,286046996.6,N
1588676595.1,286047001.1,N
1588676596.0,286047001.1,N
1588676615.8,286047000.9,N
1588676635.7,286047000.1,N
1588676655.5,286047001.0,N
1588676675.3,286046998.3,N
1588676695.2,286046999.4,N
1588676715.0,286046999.0,N
1588676715.9,286046999.0,N
1588676735.8,286047000.4,N
1588676755.6,286047001.2,N
1588676775.4,286046998.5,N
1588676795.3,286046997.1,N
1588676815.1,286046994.9,N
1588676835.9,286046996.2,N
1588676855.7,286046995.8,N
1588676875.5,286046997.7,N
1588676895.4,286046997.2,N
1588676915.2,286046997.4,N
1588676935.0,286046997.1,N
1588676935.9,286046997.1,N
1588676955.8,286046999.1,N
1588676975.6,286046998.3,N
1588676995.5,286047000.6,N
1588677015.3,286047002.6,N
1588677035.1,286047002.1,N
1588677055.9,286047001.7,N
1588677075.7,286047004.1,N
1588677095.6,286047003.1,N
1588677115.4,286047003.5,N
1588677135.2,286047003.6,N
1588677155.1,286047004.4,N
1588677156.0,286047004.4,N
1588677175.8,286047004.1,N
1588677195.7,286047001.6,N
1588677215.5,286047004.3,N
1588677235.3,286047002.4,N
1588677255.2,286047000.5,N
1588677275.0,286047000.5,N
1588677275.9,286047000.5,N
1588677295.7,286047000.6,N
1588677315.6,286046999.7,N
1588677335.4,286046998.7,N
1588677355.3,286047001.0,N
1588677375.1,286047000.7,N
1588677376.0,286047000.7,N
1588677395.8,286047001.5,N
1588677415.7,286047004.0,N
1588677435.5,286047002.3,N
1588677455.3,286046999.7,N
1588677475.2,286047001.7,N
1588677495.0,286047000.2,N
1588677495.9,286047000.2,N
1588677515.8,286047001.5,N
1588677535.6,286047001.3,N
1588677555.4,286047003.8,N
1588677575.3,286047003.5,N
1588677595.1,286047005.8,Y
1588677615.9,286047000.1,P
1588677635.7,286046999.4,N
1588677655.5,286046999.3,N
1588677675.4,286046999.2,N
1588677695.2,286046998.7,N
1588677715.0,286046998.7,N
1588677715.9,286046998.7,N
1588677735.8,286046999.2,N
1588677755.6,286046996.9,Y
1588677775.5,286046997.0,P
1588677795.3,286046999.2,N
1588677815.1,286046998.3,N
1588677835.9,286046998.7,N
1588677855.7,286046998.4,N
1588677875.5,286046998.2,N
1588677895.4,286046998.4,N
1588677915.2,286046998.2,N
1588677935.0,286046998.9,N
1588677936.0,286046998.9,N
1588677955.8,286046996.7,Y
1588677975.6,286046999.0,P
1588677995.5,286046996.8,P
1588678015.3,286046997.2,N
1588678035.1,286046996.7,Y
1588678055.9,286046998.8,P
1588678075.7,286046996.5,P
1588678095.6,286046999.6,N
1588678115.4,286046999.0,N
1588678135.2,286046999.2,N
1588678155.1,286046997.0,N
1588678156.0,286046997.0,N
1588678175.8,286046997.1,N
1588678195.6,286046999.5,N
1588678215.5,286046997.6,N
1588678235.3,286046995.6,Y
1588678255.2,286046999.0,P
1588678275.9,286046999.0,N
1588678295.7,286046998.8,N
1588678315.6,286046998.2,Y
1588678335.4,286047000.2,P
1588678355.2,286047000.8,N
1588678375.1,286047002.7,P
1588678376.0,286047002.7,N
1588678395.8,286047002.8,N
1588678415.7,286047002.2,N
1588678435.5,286047002.2,N
1588678455.3,286047001.4,N
1588678475.2,286047003.8,N
1588678495.0,286047001.4,N
1588678495.9,286047001.4,N
1588678545.8,286047003.5,E
1588678555.7,286047001.7,N
1588678575.5,286046998.2,P
1588678595.4,286046998.4,N
1588678615.2,286046999.4,N
1588678635.1,286046999.5,N
1588678636.0,286046999.5,N
1588678655.8,286046997.2,N
1588678675.6,286046996.2,N
1588678695.5,286046993.6,Y
1588678715.3,286046998.0,P
1588678735.2,286046996.8,P
1588678755.9,286046996.6,P
1588678775.7,286046999.3,N
1588678795.6,286046998.3,N
1588678815.4,286046997.0,Y
1588678835.3,286047002.5,P
1588678855.1,286047002.4,N
1588678856.0,286047002.4,N
1588678875.8,286047001.5,N
1588678895.7,286046999.9,N
1588678915.5,286047002.8,N
1588678935.3,286047002.7,N
1588678955.2,286047001.4,N
1588678975.0,286047000.3,N
1588678975.9,286047000.3,N
1588678995.8,286046999.8,N
1588679015.6,286047000.8,N
1588679035.4,286047000.6,N
1588679055.3,286046998.3,N
1588679075.1,286046998.4,N
1588679095.8,286046999.5,N
1588679115.7,286046996.7,N
1588679165.6,286046993.3,E
1588679175.5,286046997.2,N
1588679195.3,286046999.9,P
1588679215.1,286047004.1,P
1588679235.9,286047004.1,N
1588679255.7,286047004.3,N
1588679275.6,286047000.0,N
1588679295.4,286047004.0,N
1588679315.2,286047007.4,N
1588679335.1,286047009.1,N
1588679336.0,286047009.1,N
1588679355.8,286047006.1,N
1588679375.7,286047009.0,N
1588679395.5,286047008.8,N
1588679415.3,286047006.2,N
1588679435.2,286047004.5,N
1588679455.9,286047005.3,N
1588679475.7,286047002.9,N
1588679495.6,286047003.2,N
1588679515.4,286047004.5,N
1588679535.2,286047007.1,N
1588679555.1,286047005.0,N
1588679556.0,286047005.0,N
1588679575.8,286047006.7,N
1588679595.7,286047009.0,Y
1588679615.5,286047004.2,P
1588679635.3,286047003.0,P
1588679655.2,286047006.0,P
1588679675.0,286047005.6,Y
1588679675.9,286047005.6,P
1588679695.8,286047001.0,N
1588679715.6,286046997.8,N
1588679735.4,286046993.9,N
1588679755.3,286046994.0,N
1588679775.1,286046994.9,N
1588679795.8,286046995.5,N
1588679815.7,286046995.0,N
1588679835.5,286046993.6,N
1588679855.4,286046994.2,N
1588679875.2,286046991.8,N
1588679895.0,286046992.5,N
1588679895.9,286046992.5,N
1588679915.8,286046992.7,N
1588679935.6,286046992.3,N
1588679955.4,286046990.9,N
1588679975.3,286046990.8,N
1588679995.1,286046993.2,N
